sat.trackr.live / text

‹ back to catalog

TIRSAT

NORAD 58989 · 2024-032C

PAYLOAD ACTIVE UNKNOWN

§ Identity

Operator
Country
JPN
Launch date
2024-02-17
Launch site
TANSC
Launch vehicle
Mass (kg)
RCS (m²)

External: N2YO · Heavens-Above · Gunter

§ Orbital elements

Epoch: 2026-09-22T22:56:07.770336Z

Period
97.78 min
Inclination
97.9868°
Eccentricity
0.0004800
Mean motion
14.72642779 rev/d
Perigee alt
649.3 km
Apogee alt
656.0 km
Semi-major
7,030.8 km
B*
1.0689e-4
RAAN
322.7013°
Arg perigee
178.9854°
Mean anomaly
181.1364°
Rev number
13,947

§ Raw data

TIRSAT1 58989U 24032C   26265.95564549  .00000631  00000+0  10689-3 0  99942 58989  97.9868 322.7013 0004800 178.9854 181.1364 14.72642779139477

JSON: /api/v1/satellites/58989 · /tle

For live sub-satellite position, see the globe view (requires WebGL).

§ Visibility from observer

Set your observer location to see the next 7 days of passes ≥ 10°. The values pass through the URL so the page stays shareable.

No JS? Fill the form by hand. The geolocation button needs JavaScript.

§ Radio — SatNOGS DB

ModeDescriptionDownlinkUplink
BPSK S-band telemetry 2.277 GHz

1 transmitter · refreshed weekly from db.satnogs.org